Regional Weather Roundup
Issued by NWS State College, PA

Home | Current Version | Previous Version | Graphics & Text | Print | Product List | Glossary Off
Versions: 1 2 3 4 5 6 7 8 9 10 11 12 13 14 15 16 17 18 19 20 21 22 23 24 25 26 27 28 29 30 31 32 33 34 35 36 37 38 39 40 41 42 43 44 45 46 47 48 49 50

000
ASUS41 KCTP 030410
RWRCTP

REGIONAL WEATHER ROUNDUP
NATIONAL WEATHER SERVICE STATE COLLEGE PA
1100 PM EST FRI DEC 02 2016

Note: "fair" indicates few or no clouds below 12,000 feet with no
significant weather and/or obstructions to visibility.

* = STATION THAT DOES NOT REPORT PRECIPITATION /E.G. RAIN...SNOW...ETC/
    THUNDER OR FOG.

PAZ002>004-007>009-013>016-020>023-029>032-030500-
WESTERN PENNSYLVANIA

CITY           SKY/WX    TMP DP  RH WIND       PRES   REMARKS
ERIE           CLOUDY    41  33  73 W18G32    30.12R
MEADVILLE      CLOUDY    35  30  82 W10       30.11R
FRANKLIN*        N/A     34  27  75 W12G17    30.12S
NEW CASTLE     CLOUDY    37  30  75 W10G22    30.18R
BEAVER COUNTY  NOT AVBL
BUTLER*        CLOUDY    36  30  80 W7G17     30.18R
PITTSBURGH INT CLOUDY    38  32  79 W14       30.17R
PITTSBURGH     CLOUDY    37  28  70 W16G22    30.16R
INDIANA*       CLOUDY    36  32  87 NW10G18   30.15R
LATROBE        CLOUDY    36  32  87 W9        30.17R
WASHINGTON CO* CLOUDY    36  28  75 W8        30.20R
$$

PAZ004>006-010>012-017>019-024>028-033>037-041-042-045-046-049>053-030500-
CENTRAL PENNSYLVANIA

CITY           SKY/WX    TMP DP  RH WIND       PRES   REMARKS
BRADFORD       LGT SNOW  33  31  92 W14       29.99R FOG
DUBOIS         CLOUDY    34  29  82 W16G26    30.05R
CLEARFIELD     CLOUDY    36  31  82 W9G21     30.05R
JOHNSTOWN      FLURRIES  32  29  88 W18G30    30.06R
ALTOONA        CLOUDY    38  30  73 NW15G25   30.07R
STATE COLLEGE  CLOUDY    37  30  75 W16G25    30.03S
WILLIAMSPORT   CLOUDY    41  32  70 W8        29.98S
SELINSGROVE    MOCLDY    41  31  67 W9G22     30.02R
FT INDIANTOWN  PTCLDY    41  30  63 W12G35    30.01R
CAPITAL CITY   NOT AVBL
HARRISBURG     NOT AVBL
YORK           CLOUDY    41  30  65 W8        30.05R
$$

PAZ038>040-043-044-047-048-054-055-060>062-067>071-030500-
EASTERN PENNSYLVANIA

CITY           SKY/WX    TMP DP  RH WIND       PRES   REMARKS
SCRANTON       CLOUDY    39  32  76 SW12      29.92S
MOUNT POCONO   CLOUDY    34  28  79 W18G25    29.87S
ALLENTOWN      MOCLDY    42  29  59 W16G23    29.96S
QUAKERTOWN*    MOCLDY    41  30  65 W9        29.98R
READING        CLOUDY    43  29  57 NW16G29   29.99R
LANCASTER      CLOUDY    42  31  64 W10       30.02R
COATESVILLE    MOCLDY    39  28  65 W12G20    30.01S
POTTSTOWN      MOCLDY    41  29  62 W8        30.01R
BLUE BELL      MOCLDY    41  30  65 W8        29.98S
DOYLESTOWN     MOCLDY    43  30  60 W10G20    29.97R
WILLOW GROVE   NOT AVBL
NORTH PHILA    MOCLDY    44  29  55 W13       30.01R
PHILADELPHIA   MOCLDY    43  29  57 W18       30.02S
$$



USA.gov is the U.S. government's official web portal to all federal, state and local government web resources and services.